Total_Precipitation_Accumulation
0.02 0.07 0.26 0.40 0.40 0.39 0.38 0.37 0.35 0.31 0.30 0.35 0.40 0.43 0.45 0.41 0.38 0.35 0.34 0.35 0.38 0.41 0.47 0.53 0.54 0.55 0.51 0.47 0.44 0.39 0.39 0.41 0.41 0.39 0.41 0.47 0.48 0.43 0.39 0.35 0.26 0.34 0.52
0.02 0.08 0.24 0.32 0.33 0.37 0.37 0.35 0.33 0.30 0.29 0.34 0.38 0.38 0.39 0.39 0.39 0.39 0.38 0.36 0.37 0.42 0.49 0.55 0.55 0.53 0.52 0.47 0.41 0.33 0.31 0.30 0.31 0.30 0.27 0.25 0.41 0.45 0.39 0.40 0.37 0.58 0.67
0.01 0.07 0.17 0.26 0.30 0.33 0.35 0.33 0.31 0.32 0.32 0.35 0.36 0.36 0.35 0.36 0.37 0.41 0.42 0.40 0.40 0.39 0.42 0.48 0.52 0.49 0.45 0.37 0.31 0.27 0.27 0.23 0.20 0.22 0.20 0.15 0.32 0.54 0.50 0.48 0.47 0.67 0.66
0.02 0.06 0.11 0.21 0.28 0.32 0.34 0.34 0.35 0.35 0.36 0.41 0.39 0.36 0.36 0.37 0.37 0.39 0.41 0.39 0.41 0.40 0.40 0.42 0.41 0.39 0.34 0.26 0.24 0.24 0.25 0.21 0.16 0.14 0.07 0.08 0.30 0.57 0.61 0.55 0.52 0.57 0.61
0.02 0.05 0.12 0.23 0.28 0.31 0.34 0.35 0.36 0.35 0.38 0.44 0.45 0.42 0.41 0.41 0.40 0.40 0.39 0.38 0.36 0.37 0.38 0.39 0.35 0.32 0.30 0.28 0.26 0.26 0.25 0.21 0.15 0.09 0.03 0.07 0.23 0.51 0.51 0.50 0.46 0.51 0.55
0.02 0.04 0.12 0.23 0.29 0.31 0.34 0.34 0.35 0.36 0.39 0.45 0.45 0.45 0.45 0.47 0.44 0.40 0.39 0.38 0.35 0.35 0.36 0.37 0.34 0.33 0.30 0.27 0.28 0.32 0.33 0.28 0.16 0.07 0.04 0.06 0.14 0.36 0.45 0.50 0.49 0.47 0.43
0.03 0.05 0.12 0.24 0.33 0.34 0.36 0.36 0.38 0.39 0.41 0.44 0.45 0.46 0.48 0.49 0.48 0.43 0.38 0.36 0.34 0.33 0.34 0.35 0.32 0.32 0.32 0.30 0.30 0.34 0.41 0.32 0.18 0.17 0.12 0.10 0.14 0.27 0.38 0.47 0.50 0.47 0.46
0.04 0.07 0.15 0.30 0.36 0.37 0.39 0.38 0.41 0.43 0.45 0.46 0.45 0.47 0.50 0.53 0.48 0.43 0.40 0.38 0.36 0.34 0.33 0.30 0.26 0.25 0.28 0.30 0.31 0.33 0.37 0.26 0.21 0.26 0.27 0.23 0.22 0.32 0.40 0.44 0.48 0.49 0.53
0.06 0.10 0.19 0.32 0.39 0.44 0.47 0.45 0.45 0.48 0.50 0.49 0.49 0.49 0.50 0.53 0.51 0.46 0.39 0.40 0.38 0.35 0.33 0.28 0.24 0.21 0.22 0.22 0.24 0.27 0.29 0.26 0.31 0.41 0.35 0.37 0.32 0.43 0.49 0.45 0.44 0.49 0.53
0.10 0.14 0.21 0.30 0.38 0.43 0.47 0.47 0.48 0.47 0.50 0.51 0.52 0.52 0.49 0.49 0.52 0.49 0.41 0.40 0.40 0.38 0.36 0.32 0.29 0.25 0.23 0.20 0.18 0.20 0.22 0.21 0.23 0.31 0.40 0.35 0.35 0.53 0.64 0.57 0.49 0.49 0.53
0.17 0.21 0.27 0.33 0.39 0.45 0.49 0.47 0.52 0.54 0.54 0.56 0.56 0.55 0.55 0.50 0.48 0.47 0.42 0.38 0.38 0.39 0.37 0.34 0.30 0.29 0.26 0.21 0.17 0.17 0.16 0.13 0.18 0.27 0.33 0.30 0.38 0.57 0.73 0.68 0.63 0.54 0.53
0.20 0.24 0.30 0.35 0.42 0.50 0.54 0.55 0.58 0.58 0.55 0.55 0.49 0.51 0.54 0.54 0.51 0.44 0.42 0.41 0.40 0.41 0.42 0.39 0.35 0.31 0.28 0.20 0.17 0.19 0.12 0.08 0.07 0.10 0.14 0.19 0.28 0.45 0.69 0.76 0.74 0.69 0.65
0.18 0.26 0.32 0.38 0.44 0.52 0.56 0.58 0.56 0.59 0.54 0.53 0.49 0.48 0.49 0.54 0.53 0.49 0.48 0.48 0.47 0.43 0.43 0.44 0.45 0.40 0.37 0.31 0.25 0.24 0.16 0.12 0.10 0.07 0.07 0.12 0.17 0.28 0.45 0.60 0.76 0.81 0.82
0.20 0.28 0.34 0.42 0.50 0.57 0.59 0.61 0.57 0.55 0.53 0.49 0.50 0.49 0.49 0.49 0.47 0.44 0.41 0.40 0.41 0.38 0.38 0.38 0.38 0.39 0.42 0.40 0.32 0.26 0.25 0.23 0.18 0.14 0.10 0.13 0.15 0.22 0.35 0.47 0.62 0.77 0.88
0.19 0.29 0.38 0.46 0.52 0.60 0.67 0.64 0.60 0.55 0.50 0.48 0.50 0.49 0.48 0.47 0.44 0.42 0.40 0.40 0.39 0.34 0.32 0.33 0.30 0.27 0.27 0.31 0.32 0.27 0.26 0.24 0.22 0.22 0.18 0.18 0.17 0.19 0.29 0.40 0.51 0.68 0.84
0.21 0.31 0.40 0.50 0.55 0.59 0.67 0.66 0.62 0.57 0.54 0.53 0.50 0.49 0.49 0.49 0.46 0.42 0.40 0.37 0.38 0.36 0.34 0.31 0.30 0.26 0.21 0.19 0.17 0.18 0.22 0.24 0.26 0.26 0.23 0.21 0.20 0.18 0.23 0.34 0.45 0.59 0.78
0.25 0.34 0.44 0.49 0.57 0.60 0.65 0.69 0.68 0.62 0.58 0.58 0.55 0.51 0.53 0.54 0.52 0.48 0.45 0.39 0.36 0.36 0.36 0.36 0.34 0.31 0.26 0.20 0.17 0.14 0.14 0.15 0.19 0.23 0.23 0.22 0.24 0.21 0.21 0.28 0.38 0.47 0.62
0.29 0.38 0.49 0.53 0.58 0.62 0.65 0.73 0.71 0.71 0.63 0.63 0.64 0.60 0.55 0.55 0.55 0.54 0.54 0.51 0.46 0.42 0.40 0.39 0.38 0.35 0.31 0.26 0.21 0.17 0.16 0.15 0.15 0.16 0.17 0.20 0.24 0.25 0.25 0.28 0.34 0.43 0.52
0.26 0.36 0.51 0.58 0.62 0.65 0.67 0.74 0.81 0.78 0.73 0.68 0.69 0.69 0.62 0.60 0.59 0.57 0.54 0.55 0.60 0.57 0.49 0.44 0.40 0.35 0.32 0.27 0.24 0.22 0.20 0.17 0.16 0.16 0.15 0.13 0.15 0.19 0.24 0.27 0.30 0.36 0.43
0.26 0.36 0.50 0.64 0.71 0.74 0.79 0.80 0.90 0.92 0.83 0.76 0.72 0.74 0.71 0.65 0.64 0.64 0.60 0.56 0.58 0.62 0.61 0.52 0.45 0.40 0.36 0.32 0.29 0.26 0.24 0.21 0.19 0.16 0.14 0.12 0.12 0.14 0.19 0.22 0.25 0.27 0.32
0.32 0.38 0.50 0.61 0.75 0.80 0.86 0.85 0.83 0.89 0.88 0.81 0.74 0.77 0.85 0.78 0.67 0.65 0.67 0.66 0.61 0.58 0.56 0.54 0.50 0.47 0.44 0.40 0.39 0.37 0.32 0.26 0.24 0.20 0.15 0.13 0.11 0.11 0.15 0.20 0.22 0.23 0.26
0.33 0.37 0.48 0.62 0.73 0.77 0.77 0.83 0.82 0.85 0.85 0.86 0.81 0.80 0.85 0.89 0.81 0.70 0.67 0.68 0.68 0.62 0.58 0.54 0.53 0.56 0.54 0.46 0.43 0.44 0.43 0.38 0.29 0.21 0.17 0.14 0.12 0.11 0.12 0.15 0.20 0.21 0.21
0.30 0.34 0.40 0.56 0.73 0.79 0.77 0.87 0.94 1.01 1.05 1.01 0.93 0.85 0.86 0.89 0.86 0.79 0.72 0.66 0.69 0.67 0.64 0.58 0.55 0.54 0.57 0.51 0.42 0.50 0.59 0.46 0.29 0.21 0.17 0.15 0.12 0.11 0.10 0.11 0.15 0.20 0.22
0.32 0.36 0.38 0.47 0.63 0.82 0.84 0.87 0.93 0.98 0.99 1.03 0.95 0.86 0.85 0.90 0.92 0.86 0.83 0.76 0.69 0.66 0.62 0.59 0.58 0.56 0.60 0.61 0.50 0.43 0.44 0.44 0.46 0.33 0.21 0.20 0.19 0.17 0.13 0.12 0.13 0.17 0.24
0.39 0.46 0.45 0.49 0.57 0.76 0.79 0.78 0.86 0.89 0.91 0.99 1.02 0.95 0.92 0.93 0.97 0.97 0.94 0.89 0.83 0.74 0.64 0.59 0.59 0.61 0.62 0.63 0.57 0.48 0.41 0.34 0.35 0.45 0.33 0.26 0.30 0.28 0.24 0.20 0.20 0.21 0.24
0.44 0.55 0.54 0.58 0.58 0.69 0.82 0.77 0.77 0.81 0.86 0.92 0.98 1.03 1.02 1.01 1.00 1.00 1.00 0.94 0.88 0.86 0.78 0.67 0.62 0.63 0.62 0.60 0.59 0.55 0.53 0.51 0.41 0.43 0.42 0.28 0.26 0.25 0.27 0.31 0.30 0.30 0.32